Weather History for Pleasanton, TX

Change the Weather History Date:

Monday, November 18, 2013

  Actual Average Record
Temperature  
Mean Temperature 72 °F -  
Max Temperature 82 °F 67 °F 82 °F (2013)
Min Temperature 61 °F 50 °F 32 °F (2014)
Cooling Degree Days 6    
Growing Degree Days 22 (Base 50)    
Moisture  
Dew Point 65 °F    
Average Humidity 82    
Maximum Humidity 97    
Minimum Humidity 57    
Precipitation  
Precipitation 0.00 in - - ()
Sea Level Pressure  
Sea Level Pressure 30.02 in    
Wind  
Wind Speed 4 mph (NE)    
Max Wind Speed 13 mph    
Max Gust Speed 18 mph    
Visibility 7 miles    
Events Fog    
Averages and records for this station are not official NWS values.
T = Trace of Precipitation, MM = Missing Value Source: NWS Daily Summary

Daily Weather History Graph

Daily Weather History Graph

Search for Another Location

Airport:

Trip Planner

Search our weather history database for the weather conditions in past years. The results will help you decide how hot, cold, wet, or windy it might be!

Date:

Astronomy

Nov. 18, 2013 Rise Set
Actual Time 6:59 AM CST 5:38 PM CST
Civil Twilight 6:34 AM CST 6:03 PM CST
Nautical Twilight 6:06 AM CST 6:32 PM CST
Astronomical Twilight 5:37 AM CST 7:00 PM CST
Moon 6:43 PM CST (11/18) 7:49 AM CST (11/18)
Length of Visible Light 11h 28m
Length of Day
10h 38m
Full, 99% of the Moon is Illuminated
Nov 18
Full
Nov 25
Last Quarter
Dec 2
New
Dec 9
First Quarter
Dec 17
Full

Hourly Weather History & Observations

Time (CST) Temp. Heat Index Dew Point Humidity Pressure Visibility Wind Dir Wind Speed Gust Speed Precip Events Conditions
12:15 AM 65.5 °F - 63.1 °F 92% 29.94 in 10.0 mi Calm Calm - N/A   Clear
12:35 AM 65.5 °F - 63.3 °F 93% 29.94 in 10.0 mi Calm Calm - N/A   Clear
12:55 AM 64.6 °F - 62.2 °F 92% 29.94 in 10.0 mi Calm Calm - N/A   Clear
1:15 AM 64.4 °F - 61.9 °F 92% 29.94 in 10.0 mi Calm Calm - N/A   Clear
1:35 AM 63.1 °F - 61.0 °F 93% 29.94 in 10.0 mi Calm Calm - N/A   Clear
1:55 AM 62.6 °F - 60.8 °F 94% 29.94 in 10.0 mi Calm Calm - N/A   Clear
2:15 AM 62.2 °F - 60.8 °F 95% 29.93 in 7.0 mi Calm Calm - N/A   Clear
2:35 AM 63.1 °F - 61.7 °F 95% 29.94 in 7.0 mi Calm Calm - N/A   Clear
2:55 AM 61.9 °F - 60.6 °F 96% 29.94 in 5.0 mi Calm Calm - N/A   Scattered Clouds
3:15 AM 61.2 °F - 59.9 °F 96% 29.94 in 7.0 mi Calm Calm - N/A   Mostly Cloudy
3:35 AM 65.5 °F - 64.2 °F 96% 29.95 in 1.0 mi NNW 4.6 mph - N/A   Overcast
3:55 AM 65.3 °F - 64.4 °F 97% 29.95 in 0.2 mi North 3.5 mph - N/A Fog Fog
4:15 AM 66.2 °F - 65.3 °F 97% 29.96 in 0.5 mi North 3.5 mph - N/A Fog Fog
4:35 AM 66.7 °F - 65.7 °F 96% 29.96 in 0.2 mi NNW 3.5 mph - N/A Fog Fog
4:55 AM 67.8 °F - 66.7 °F 96% 29.96 in 0.2 mi Calm Calm - N/A Fog Fog
5:15 AM 68.4 °F - 67.3 °F 96% 29.97 in 0.2 mi Calm Calm - N/A Fog Fog
5:35 AM 68.4 °F - 67.3 °F 96% 29.98 in 0.2 mi Calm Calm - N/A Fog Fog
5:55 AM 68.4 °F - 67.3 °F 96% 29.98 in 0.2 mi Calm Calm - N/A Fog Fog
6:15 AM 68.7 °F - 67.6 °F 96% 29.99 in 0.2 mi Calm Calm - N/A Fog Fog
6:35 AM 68.9 °F - 68.0 °F 97% 30.00 in 0.2 mi Calm Calm - N/A Fog Fog
6:55 AM 69.1 °F - 68.0 °F 96% 30.01 in 0.2 mi ENE 3.5 mph - N/A Fog Fog
7:15 AM 69.3 °F - 68.4 °F 97% 30.01 in 0.2 mi Calm Calm - N/A Fog Fog
7:35 AM 69.4 °F - 68.4 °F 96% 30.02 in 0.2 mi ENE 4.6 mph - N/A Fog Fog
7:55 AM 69.4 °F - 68.4 °F 96% 30.02 in 0.2 mi ENE 3.5 mph - N/A Fog Fog
8:15 AM 69.4 °F - 68.4 °F 96% 30.03 in 0.2 mi NE 4.6 mph - N/A Fog Fog
8:35 AM 69.6 °F - 68.5 °F 96% 30.04 in 0.2 mi NNE 6.9 mph - N/A Fog Fog
8:55 AM 69.4 °F - 68.5 °F 97% 30.04 in 0.2 mi NNE 5.8 mph - N/A Fog Fog
9:15 AM 69.8 °F - 68.7 °F 96% 30.05 in 0.5 mi North 6.9 mph - N/A Fog Fog
9:35 AM 69.1 °F - 68.2 °F 97% 30.06 in 2.0 mi NE 5.8 mph - N/A   Overcast
9:55 AM 69.3 °F - 68.4 °F 97% 30.06 in 1.5 mi NNE 8.1 mph - N/A   Overcast
10:15 AM 68.9 °F - 68.0 °F 97% 30.07 in 1.8 mi NNE 8.1 mph - N/A   Overcast
10:35 AM 69.1 °F - 68.0 °F 96% 30.06 in 3.0 mi NE 8.1 mph - N/A   Overcast
10:55 AM 69.8 °F - 68.0 °F 94% 30.06 in 5.0 mi NE 8.1 mph - N/A   Overcast
11:15 AM 74.1 °F - 67.6 °F 80% 30.06 in 7.0 mi ENE 5.8 mph - N/A   Mostly Cloudy
11:35 AM 77.0 °F - 67.8 °F 73% 30.05 in 10.0 mi NE 6.9 mph - N/A   Scattered Clouds
11:55 AM 78.1 °F - 67.5 °F 70% 30.05 in 10.0 mi ENE 6.9 mph - N/A   Clear
12:15 PM 79.7 °F - 67.3 °F 66% 30.04 in 10.0 mi ENE 6.9 mph - N/A   Clear
12:35 PM 79.7 °F - 67.1 °F 65% 30.03 in 10.0 mi NE 6.9 mph - N/A   Clear
12:55 PM 80.8 °F 83.2 °F 67.3 °F 63% 30.03 in 10.0 mi East 9.2 mph - N/A   Clear
1:15 PM 80.8 °F 83.5 °F 68.0 °F 65% 30.02 in 10.0 mi ENE 8.1 mph - N/A   Clear
1:35 PM 80.8 °F 83.5 °F 68.0 °F 65% 30.01 in 10.0 mi NE 6.9 mph - N/A   Clear
1:55 PM 81.9 °F 84.8 °F 68.4 °F 63% 30.00 in 10.0 mi ENE 6.9 mph - N/A   Clear
2:15 PM 81.5 °F 84.4 °F 68.4 °F 64% 29.99 in 10.0 mi East 6.9 mph - N/A   Clear
2:35 PM 82.9 °F 86.3 °F 68.9 °F 62% 29.99 in 10.0 mi East 9.2 mph - N/A   Scattered Clouds
2:55 PM 81.5 °F 84.4 °F 68.4 °F 64% 29.99 in 10.0 mi NE 9.2 mph - N/A   Mostly Cloudy
3:15 PM 80.1 °F 82.7 °F 68.0 °F 67% 29.98 in 10.0 mi NE 10.4 mph - N/A   Mostly Cloudy
3:35 PM 79.3 °F - 68.2 °F 69% 29.98 in 10.0 mi East 11.5 mph 18.4 mph N/A   Mostly Cloudy
3:55 PM 78.4 °F - 67.6 °F 69% 29.99 in 10.0 mi NE 12.7 mph 16.1 mph N/A   Mostly Cloudy
4:15 PM 77.2 °F - 67.5 °F 72% 30.00 in 10.0 mi NE 10.4 mph - N/A   Mostly Cloudy
4:35 PM 76.5 °F - 67.1 °F 73% 30.01 in 10.0 mi NE 5.8 mph - N/A   Scattered Clouds
4:55 PM 77.4 °F - 66.6 °F 69% 30.01 in 10.0 mi NE 9.2 mph - N/A   Clear
5:15 PM 76.1 °F - 66.4 °F 72% 30.01 in 10.0 mi NE 9.2 mph - N/A   Clear
5:35 PM 75.2 °F - 66.2 °F 73% 30.02 in 10.0 mi NE 8.1 mph - N/A   Clear
5:55 PM 75.0 °F - 65.1 °F 71% 30.02 in 10.0 mi NE 9.2 mph - N/A   Clear
6:15 PM 74.3 °F - 65.3 °F 73% 30.03 in 10.0 mi NE 6.9 mph - N/A   Scattered Clouds
6:35 PM 73.8 °F - 65.1 °F 74% 30.03 in 10.0 mi NE 6.9 mph - N/A   Scattered Clouds
6:55 PM 73.4 °F - 64.9 °F 75% 30.04 in 10.0 mi NE 6.9 mph - N/A   Scattered Clouds
7:15 PM 72.5 °F - 64.8 °F 77% 30.06 in 10.0 mi NE 5.8 mph - N/A   Scattered Clouds
7:35 PM 72.5 °F - 64.8 °F 77% 30.06 in 10.0 mi NE 6.9 mph - N/A   Scattered Clouds
7:55 PM 72.0 °F - 64.8 °F 78% 30.07 in 10.0 mi NE 5.8 mph - N/A   Clear
8:15 PM 71.8 °F - 65.3 °F 80% 30.08 in 10.0 mi NE 8.1 mph - N/A   Scattered Clouds
8:35 PM 71.8 °F - 65.3 °F 80% 30.08 in 10.0 mi NE 8.1 mph - N/A   Mostly Cloudy
8:55 PM 71.8 °F - 65.5 °F 80% 30.08 in 10.0 mi NE 6.9 mph - N/A   Scattered Clouds
9:15 PM 71.8 °F - 65.7 °F 81% 30.09 in 10.0 mi NE 6.9 mph - N/A   Mostly Cloudy
9:35 PM 71.6 °F - 65.7 °F 81% 30.08 in 10.0 mi ENE 12.7 mph 17.3 mph N/A   Scattered Clouds
9:55 PM 71.1 °F - 65.5 °F 82% 30.09 in 10.0 mi ENE 11.5 mph 17.3 mph N/A   Clear
10:15 PM 70.7 °F - 58.8 °F 66% 30.09 in 10.0 mi East 11.5 mph 17.3 mph N/A   Clear
10:35 PM 70.3 °F - 54.5 °F 57% 30.10 in 10.0 mi East 4.6 mph 9.2 mph N/A   Clear
10:55 PM 69.1 °F - 54.5 °F 60% 30.10 in 10.0 mi East 4.6 mph - N/A   Clear
11:15 PM 67.5 °F - 54.5 °F 63% 30.09 in 10.0 mi East 4.6 mph - N/A   Clear
11:35 PM 67.1 °F - 54.0 °F 63% 30.09 in 10.0 mi ENE 4.6 mph - N/A   Clear
11:55 PM 66.6 °F - 53.8 °F 63% 30.09 in 10.0 mi ENE 3.5 mph - N/A   Clear